Time,TemperatureF,DewpointF,PressureIn,WindDirection,WindDirectionDegrees,WindSpeedMPH,WindSpeedGustMPH,Humidity,HourlyPrecipIn,Conditions,Clouds,dailyrainin,SoftwareType,DateUTC
2013-03-05 00:02:00,48.1,40.8,30.06,ESE,113,0.2,1.1,76,0.00,,,0.00,WUHU216HW,2013-03-05 08:02:00,
2013-03-05 00:07:00,47.9,40.6,30.06,ESE,113,0.0,1.1,76,0.00,,,0.00,WUHU216HW,2013-03-05 08:07:00,
2013-03-05 00:12:00,47.9,40.6,30.06,SE,135,0.7,1.1,76,0.00,,,0.00,WUHU216HW,2013-03-05 08:12:00,
2013-03-05 00:17:00,47.9,40.6,30.06,SSE,158,1.3,1.3,76,0.00,,,0.00,WUHU216HW,2013-03-05 08:17:00,
2013-03-05 00:22:00,47.7,40.4,30.06,NE,45,0.9,1.3,76,0.00,,,0.00,WUHU216HW,2013-03-05 08:22:00,
2013-03-05 00:27:00,47.7,40.8,30.06,NNE,23,0.0,0.9,77,0.00,,,0.00,WUHU216HW,2013-03-05 08:27:00,
2013-03-05 00:32:00,47.7,40.8,30.05,NNE,23,0.4,1.1,77,0.00,,,0.00,WUHU216HW,2013-03-05 08:32:00,
2013-03-05 00:37:00,47.5,40.6,30.05,ESE,113,0.0,1.1,77,0.00,,,0.00,WUHU216HW,2013-03-05 08:37:00,
2013-03-05 00:42:00,47.5,40.6,30.05,ESE,113,0.0,1.1,77,0.00,,,0.00,WUHU216HW,2013-03-05 08:42:00,
2013-03-05 00:47:00,47.5,40.6,30.05,ESE,113,0.0,0.0,77,0.00,,,0.00,WUHU216HW,2013-03-05 08:47:00,
2013-03-05 00:52:00,47.3,40.5,30.05,ESE,113,0.0,0.0,77,0.00,,,0.00,WUHU216HW,2013-03-05 08:52:00,
2013-03-05 00:57:00,47.2,40.3,30.04,ESE,113,0.0,0.0,77,0.00,,,0.00,WUHU216HW,2013-03-05 08:57:00,
2013-03-05 01:02:00,47.2,40.3,30.05,NNE,23,0.0,0.2,77,0.00,,,0.00,WUHU216HW,2013-03-05 09:02:00,
2013-03-05 01:07:00,47.2,40.7,30.05,NNE,23,0.9,0.9,78,0.00,,,0.00,WUHU216HW,2013-03-05 09:07:00,
2013-03-05 01:12:00,47.0,40.5,30.04,NNE,23,0.0,0.9,78,0.00,,,0.00,WUHU216HW,2013-03-05 09:12:00,
2013-03-05 01:17:00,47.0,40.5,30.05,NNE,23,0.0,0.2,78,0.00,,,0.00,WUHU216HW,2013-03-05 09:17:00,
2013-03-05 01:22:00,46.8,40.3,30.05,NNE,23,0.4,0.4,78,0.00,,,0.00,WUHU216HW,2013-03-05 09:22:00,
2013-03-05 01:27:00,46.8,40.0,30.05,NNE,23,0.0,0.9,77,0.00,,,0.00,WUHU216HW,2013-03-05 09:27:00,
2013-03-05 01:32:00,46.6,39.8,30.05,NNE,23,1.1,1.1,77,0.00,,,0.00,WUHU216HW,2013-03-05 09:32:00,
2013-03-05 01:37:00,46.6,39.8,30.05,ENE,68,1.1,1.3,77,0.00,,,0.00,WUHU216HW,2013-03-05 09:37:00,
2013-03-05 01:42:00,46.4,39.7,30.05,East,90,0.7,1.3,77,0.00,,,0.00,WUHU216HW,2013-03-05 09:42:00,
2013-03-05 01:47:00,46.4,39.7,30.05,SE,135,0.7,0.7,77,0.00,,,0.00,WUHU216HW,2013-03-05 09:47:00,
2013-03-05 01:52:00,46.4,39.7,30.05,SE,135,1.1,1.1,77,0.00,,,0.00,WUHU216HW,2013-03-05 09:52:00,
2013-03-05 01:57:00,46.3,39.5,30.05,SE,135,0.0,1.1,77,0.00,,,0.00,WUHU216HW,2013-03-05 09:57:00,
2013-03-05 02:02:00,46.1,39.3,30.05,SE,135,0.0,0.7,77,0.00,,,0.00,WUHU216HW,2013-03-05 10:02:00,
2013-03-05 02:07:00,46.1,39.6,30.05,SE,135,0.0,0.0,78,0.00,,,0.00,WUHU216HW,2013-03-05 10:07:00,
2013-03-05 02:12:00,46.1,39.6,30.05,ESE,113,0.0,0.4,78,0.00,,,0.00,WUHU216HW,2013-03-05 10:12:00,
2013-03-05 02:17:00,46.1,39.6,30.05,ESE,113,0.2,0.4,78,0.00,,,0.00,WUHU216HW,2013-03-05 10:17:00,
2013-03-05 02:22:00,45.9,39.4,30.05,East,90,0.4,1.3,78,0.00,,,0.00,WUHU216HW,2013-03-05 10:22:00,
2013-03-05 02:28:00,45.9,39.4,30.05,East,90,0.0,1.3,78,0.00,,,0.00,WUHU216HW,2013-03-05 10:28:00,
2013-03-05 02:33:00,45.7,39.2,30.04,ESE,113,0.4,0.7,78,0.00,,,0.00,WUHU216HW,2013-03-05 10:33:00,
2013-03-05 02:38:00,45.7,39.2,30.04,SE,135,0.4,0.7,78,0.00,,,0.00,WUHU216HW,2013-03-05 10:38:00,
2013-03-05 02:43:00,45.7,39.2,30.05,NE,45,0.4,1.1,78,0.00,,,0.00,WUHU216HW,2013-03-05 10:43:00,
2013-03-05 02:48:00,45.5,39.1,30.05,NE,45,0.0,1.1,78,0.00,,,0.00,WUHU216HW,2013-03-05 10:48:00,
2013-03-05 02:53:00,45.5,39.1,30.05,SE,135,0.2,0.9,78,0.00,,,0.00,WUHU216HW,2013-03-05 10:53:00,
2013-03-05 02:58:00,45.5,39.4,30.04,SE,135,0.0,0.9,79,0.00,,,0.00,WUHU216HW,2013-03-05 10:58:00,
2013-03-05 03:03:00,45.4,39.2,30.04,SE,135,0.0,0.4,79,0.00,,,0.00,WUHU216HW,2013-03-05 11:03:00,
2013-03-05 03:08:00,45.4,39.2,30.04,SE,135,0.0,0.4,79,0.00,,,0.00,WUHU216HW,2013-03-05 11:08:00,
2013-03-05 03:13:00,45.4,39.2,30.04,SE,135,0.4,1.1,79,0.00,,,0.00,WUHU216HW,2013-03-05 11:13:00,
2013-03-05 03:18:00,45.2,39.1,30.04,NE,45,0.4,1.1,79,0.00,,,0.00,WUHU216HW,2013-03-05 11:18:00,
2013-03-05 03:23:00,45.4,39.2,30.04,NE,45,0.0,1.1,79,0.00,,,0.00,WUHU216HW,2013-03-05 11:23:00,
2013-03-05 03:28:00,45.4,39.2,30.05,NE,45,0.0,0.2,79,0.00,,,0.00,WUHU216HW,2013-03-05 11:28:00,
2013-03-05 03:33:00,45.4,39.6,30.05,NE,45,0.0,0.2,80,0.00,,,0.00,WUHU216HW,2013-03-05 11:33:00,
2013-03-05 03:38:00,45.5,39.8,30.04,ENE,68,1.6,1.6,80,0.00,,,0.00,WUHU216HW,2013-03-05 11:38:00,
2013-03-05 03:43:00,45.4,39.6,30.05,East,90,0.0,1.6,80,0.00,,,0.00,WUHU216HW,2013-03-05 11:43:00,
2013-03-05 03:48:00,45.5,39.8,30.05,East,90,0.0,0.2,80,0.00,,,0.00,WUHU216HW,2013-03-05 11:48:00,
2013-03-05 03:53:00,45.5,39.8,30.05,SSE,158,0.9,0.9,80,0.00,,,0.00,WUHU216HW,2013-03-05 11:53:00,
2013-03-05 03:58:00,45.7,40.0,30.05,SSE,158,1.3,1.3,80,0.00,,,0.00,WUHU216HW,2013-03-05 11:58:00,
2013-03-05 04:03:00,45.7,40.2,30.05,SSE,158,0.9,1.3,81,0.00,,,0.00,WUHU216HW,2013-03-05 12:03:00,
2013-03-05 04:08:00,45.7,40.2,30.05,ESE,113,0.2,1.3,81,0.00,,,0.00,WUHU216HW,2013-03-05 12:08:00,
2013-03-05 04:13:00,45.7,40.2,30.05,ESE,113,0.0,0.4,81,0.00,,,0.00,WUHU216HW,2013-03-05 12:13:00,
2013-03-05 04:18:00,45.7,40.2,30.05,ESE,113,0.4,0.4,81,0.00,,,0.00,WUHU216HW,2013-03-05 12:18:00,
2013-03-05 04:23:00,45.9,40.4,30.05,NE,45,1.1,1.1,81,0.00,,,0.00,WUHU216HW,2013-03-05 12:23:00,
2013-03-05 04:28:00,45.9,40.4,30.05,ENE,68,0.7,1.1,81,0.00,,,0.00,WUHU216HW,2013-03-05 12:28:00,
2013-03-05 04:33:00,45.9,40.4,30.05,East,90,0.4,1.1,81,0.00,,,0.00,WUHU216HW,2013-03-05 12:33:00,
2013-03-05 04:38:00,45.9,40.4,30.05,East,90,0.0,0.7,81,0.00,,,0.00,WUHU216HW,2013-03-05 12:38:00,
2013-03-05 04:43:00,45.9,40.4,30.05,East,90,0.0,0.4,81,0.00,,,0.00,WUHU216HW,2013-03-05 12:43:00,
2013-03-05 04:48:00,45.9,40.4,30.05,East,90,0.0,0.4,81,0.00,,,0.00,WUHU216HW,2013-03-05 12:48:00,
2013-03-05 04:53:00,46.1,40.6,30.05,ESE,113,0.0,0.4,81,0.00,,,0.00,WUHU216HW,2013-03-05 12:53:00,
2013-03-05 04:58:00,46.1,40.6,30.05,NNW,338,1.1,1.1,81,0.00,,,0.00,WUHU216HW,2013-03-05 12:58:00,
2013-03-05 05:03:00,46.1,41.0,30.05,WNW,293,2.5,2.5,82,0.00,,,0.00,WUHU216HW,2013-03-05 13:03:00,
2013-03-05 05:08:00,46.1,41.0,30.06,NW,315,0.7,2.5,82,0.00,,,0.00,WUHU216HW,2013-03-05 13:08:00,
2013-03-05 05:13:00,46.1,41.0,30.05,NW,315,0.0,2.5,82,0.00,,,0.00,WUHU216HW,2013-03-05 13:13:00,
2013-03-05 05:18:00,46.3,41.1,30.05,North,0,0.7,1.1,82,0.00,,,0.00,WUHU216HW,2013-03-05 13:18:00,
2013-03-05 05:23:00,46.3,41.1,30.05,North,0,0.0,0.7,82,0.00,,,0.00,WUHU216HW,2013-03-05 13:23:00,
2013-03-05 05:28:00,46.3,41.1,30.04,North,0,0.0,1.6,82,0.00,,,0.00,WUHU216HW,2013-03-05 13:28:00,
2013-03-05 05:33:00,46.3,41.1,30.04,WNW,293,1.1,1.6,82,0.00,,,0.00,WUHU216HW,2013-03-05 13:33:00,
2013-03-05 05:38:00,46.4,41.3,30.05,West,270,1.8,1.8,82,0.00,,,0.00,WUHU216HW,2013-03-05 13:38:00,
2013-03-05 05:43:00,46.4,41.3,30.05,NW,315,3.4,3.4,82,0.00,,,0.00,WUHU216HW,2013-03-05 13:43:00,
2013-03-05 05:48:00,46.4,41.3,30.05,WNW,293,3.6,4.0,82,0.00,,,0.00,WUHU216HW,2013-03-05 13:48:00,
2013-03-05 05:53:00,46.6,41.5,30.04,NW,315,5.1,5.1,82,0.00,,,0.00,WUHU216HW,2013-03-05 13:53:00,
2013-03-05 05:58:00,46.8,41.3,30.04,North,0,3.8,5.1,81,0.00,,,0.00,WUHU216HW,2013-03-05 13:58:00,
2013-03-05 06:03:00,47.0,41.5,30.04,West,270,1.3,4.9,81,0.00,,,0.00,WUHU216HW,2013-03-05 14:03:00,
2013-03-05 06:08:00,47.0,41.5,30.03,NW,315,1.3,3.1,81,0.00,,,0.00,WUHU216HW,2013-03-05 14:08:00,
2013-03-05 06:13:00,47.0,41.5,30.03,West,270,2.0,2.9,81,0.00,,,0.00,WUHU216HW,2013-03-05 14:13:00,
2013-03-05 06:18:00,47.2,41.7,30.04,WNW,293,1.3,2.5,81,0.00,,,0.00,WUHU216HW,2013-03-05 14:18:00,
2013-03-05 06:23:00,47.2,41.7,30.03,WNW,293,0.4,2.5,81,0.00,,,0.00,WUHU216HW,2013-03-05 14:23:00,
2013-03-05 06:28:00,47.2,41.7,30.03,WNW,293,0.9,1.8,81,0.00,,,0.00,WUHU216HW,2013-03-05 14:28:00,
2013-03-05 06:33:00,47.2,41.7,30.03,WSW,248,0.7,0.9,81,0.00,,,0.00,WUHU216HW,2013-03-05 14:33:00,
2013-03-05 06:38:00,47.2,41.7,30.04,SSE,158,0.2,0.9,81,0.00,,,0.00,WUHU216HW,2013-03-05 14:38:00,
2013-03-05 06:43:00,47.2,41.7,30.04,SW,225,0.4,0.9,81,0.00,,,0.00,WUHU216HW,2013-03-05 14:43:00,
2013-03-05 06:48:00,47.2,41.7,30.05,SW,225,0.0,0.7,81,0.00,,,0.00,WUHU216HW,2013-03-05 14:48:00,
2013-03-05 06:53:00,47.2,41.7,30.05,SW,225,0.2,0.7,81,0.00,,,0.00,WUHU216HW,2013-03-05 14:53:00,
2013-03-05 06:58:00,47.2,41.7,30.05,SE,135,1.1,1.1,81,0.00,,,0.00,WUHU216HW,2013-03-05 14:58:00,
2013-03-05 07:03:00,47.2,41.7,30.05,SSE,158,0.0,1.6,81,0.00,,,0.00,WUHU216HW,2013-03-05 15:03:00,
2013-03-05 07:08:00,47.2,41.7,30.06,SSE,158,0.0,1.6,81,0.00,,,0.00,WUHU216HW,2013-03-05 15:08:00,
2013-03-05 07:13:00,47.2,41.7,30.06,SSE,158,0.0,0.4,81,0.00,,,0.00,WUHU216HW,2013-03-05 15:13:00,
2013-03-05 07:18:00,47.2,41.7,30.06,SW,225,0.9,0.9,81,0.00,,,0.00,WUHU216HW,2013-03-05 15:18:00,
2013-03-05 07:23:00,47.2,41.7,30.06,SW,225,0.0,0.9,81,0.00,,,0.00,WUHU216HW,2013-03-05 15:23:00,
2013-03-05 07:28:00,47.2,41.7,30.06,SW,225,0.0,0.9,81,0.00,,,0.00,WUHU216HW,2013-03-05 15:28:00,
2013-03-05 07:33:00,47.2,41.7,30.06,SW,225,0.0,0.0,81,0.00,,,0.00,WUHU216HW,2013-03-05 15:33:00,
2013-03-05 07:38:00,47.2,41.7,30.06,SW,225,0.0,0.0,81,0.00,,,0.00,WUHU216HW,2013-03-05 15:38:00,
2013-03-05 07:43:00,47.3,41.8,30.06,SW,225,0.2,0.2,81,0.00,,,0.00,WUHU216HW,2013-03-05 15:43:00,
2013-03-05 07:48:00,47.3,41.8,30.06,SSW,203,0.4,0.4,81,0.00,,,0.00,WUHU216HW,2013-03-05 15:48:00,
2013-03-05 07:53:00,47.5,41.9,30.05,ENE,68,1.1,1.6,81,0.00,,,0.00,WUHU216HW,2013-03-05 15:53:00,
2013-03-05 07:58:00,47.7,42.1,30.05,SE,135,1.1,1.8,81,0.00,,,0.00,WUHU216HW,2013-03-05 15:58:00,
2013-03-05 08:03:00,47.9,42.3,30.05,SE,135,1.1,1.8,81,0.00,,,0.00,WUHU216HW,2013-03-05 16:03:00,
2013-03-05 08:08:00,47.9,42.3,30.05,ESE,113,3.1,3.1,81,0.00,,,0.00,WUHU216HW,2013-03-05 16:08:00,
2013-03-05 08:13:00,47.9,42.3,30.05,SE,135,1.8,3.1,81,0.00,,,0.00,WUHU216HW,2013-03-05 16:13:00,
2013-03-05 08:18:00,48.2,42.7,30.05,ESE,113,1.8,4.5,81,0.00,,,0.00,WUHU216HW,2013-03-05 16:18:00,
2013-03-05 08:23:00,48.6,43.3,30.05,ESE,113,0.0,4.5,82,0.00,,,0.00,WUHU216HW,2013-03-05 16:23:00,
2013-03-05 08:28:00,48.6,43.3,30.04,South,180,1.6,2.7,82,0.00,,,0.00,WUHU216HW,2013-03-05 16:28:00,
2013-03-05 08:33:00,48.8,43.5,30.05,ESE,113,2.5,4.5,82,0.00,,,0.00,WUHU216HW,2013-03-05 16:33:00,
2013-03-05 08:38:00,49.1,43.8,30.05,SSE,158,2.5,4.5,82,0.00,,,0.00,WUHU216HW,2013-03-05 16:38:00,
2013-03-05 08:43:00,49.3,43.7,30.05,SW,225,1.3,3.6,81,0.00,,,0.00,WUHU216HW,2013-03-05 16:43:00,
2013-03-05 08:48:00,49.5,43.8,30.05,SW,225,2.5,3.6,81,0.00,,,0.00,WUHU216HW,2013-03-05 16:48:00,
2013-03-05 08:53:00,49.5,43.8,30.05,ESE,113,1.8,3.4,81,0.00,,,0.00,WUHU216HW,2013-03-05 16:53:00,
2013-03-05 08:58:00,49.7,43.7,30.05,SE,135,1.8,3.4,80,0.00,,,0.00,WUHU216HW,2013-03-05 16:58:00,
2013-03-05 09:03:00,50.0,44.1,30.04,ESE,113,3.4,3.4,80,0.00,,,0.00,WUHU216HW,2013-03-05 17:03:00,
2013-03-05 09:08:00,50.4,44.1,30.04,SSW,203,2.7,3.4,79,0.00,,,0.00,WUHU216HW,2013-03-05 17:08:00,
2013-03-05 09:13:00,50.8,44.1,30.04,SSE,158,2.7,5.4,78,0.00,,,0.00,WUHU216HW,2013-03-05 17:13:00,
2013-03-05 09:18:00,51.1,44.5,30.04,ESE,113,4.0,5.4,78,0.00,,,0.00,WUHU216HW,2013-03-05 17:18:00,
2013-03-05 09:23:00,51.5,44.6,30.04,SE,135,2.0,7.6,77,0.00,,,0.00,WUHU216HW,2013-03-05 17:23:00,
2013-03-05 09:28:00,51.8,44.6,30.03,SW,225,3.8,7.6,76,0.00,,,0.00,WUHU216HW,2013-03-05 17:28:00,
2013-03-05 09:33:00,52.2,44.6,30.03,SW,225,1.8,6.9,75,0.00,,,0.00,WUHU216HW,2013-03-05 17:33:00,
2013-03-05 09:38:00,52.4,44.7,30.03,South,180,3.1,3.4,75,0.00,,,0.00,WUHU216HW,2013-03-05 17:38:00,
2013-03-05 09:43:00,52.6,44.6,30.03,SE,135,1.8,4.5,74,0.00,,,0.00,WUHU216HW,2013-03-05 17:43:00,
2013-03-05 09:48:00,52.9,44.6,30.03,ESE,113,2.5,4.5,73,0.00,,,0.00,WUHU216HW,2013-03-05 17:48:00,
2013-03-05 09:53:00,52.9,44.6,30.03,SSW,203,3.4,4.0,73,0.00,,,0.00,WUHU216HW,2013-03-05 17:53:00,
2013-03-05 09:58:00,53.3,44.5,30.03,SSW,203,4.0,5.4,72,0.00,,,0.00,WUHU216HW,2013-03-05 17:58:00,
2013-03-05 10:03:00,53.6,45.2,30.03,ESE,113,1.8,5.4,73,0.00,,,0.00,WUHU216HW,2013-03-05 18:03:00,
2013-03-05 10:08:00,54.2,45.7,30.03,SW,225,2.9,4.0,73,0.00,,,0.00,WUHU216HW,2013-03-05 18:08:00,
2013-03-05 10:13:00,54.4,45.6,30.03,NW,315,1.1,3.6,72,0.00,,,0.00,WUHU216HW,2013-03-05 18:13:00,
2013-03-05 10:18:00,54.7,45.6,30.03,SSW,203,5.4,5.4,71,0.00,,,0.00,WUHU216HW,2013-03-05 18:18:00,
2013-03-05 10:23:00,55.1,45.5,30.03,SW,225,2.5,5.4,70,0.00,,,0.00,WUHU216HW,2013-03-05 18:23:00,
2013-03-05 10:28:00,55.3,45.3,30.03,SW,225,4.0,5.4,69,0.00,,,0.00,WUHU216HW,2013-03-05 18:28:00,
2013-03-05 10:33:00,55.4,45.1,30.03,SSW,203,3.4,4.0,68,0.00,,,0.00,WUHU216HW,2013-03-05 18:33:00,
2013-03-05 10:38:00,55.6,44.4,30.03,WSW,248,3.4,6.5,66,0.00,,,0.00,WUHU216HW,2013-03-05 18:38:00,
2013-03-05 10:43:00,56.0,44.4,30.03,SSW,203,3.4,6.5,65,0.00,,,0.00,WUHU216HW,2013-03-05 18:43:00,
2013-03-05 10:48:00,56.2,44.1,30.03,South,180,2.7,4.0,64,0.00,,,0.00,WUHU216HW,2013-03-05 18:48:00,
2013-03-05 10:53:00,56.3,44.3,30.03,SW,225,4.5,5.6,64,0.00,,,0.00,WUHU216HW,2013-03-05 18:53:00,
2013-03-05 10:58:00,56.5,43.7,30.03,SE,135,3.1,5.6,62,0.00,,,0.00,WUHU216HW,2013-03-05 18:58:00,
2013-03-05 11:03:00,56.9,44.0,30.02,SW,225,3.8,4.5,62,0.00,,,0.00,WUHU216HW,2013-03-05 19:03:00,
2013-03-05 11:08:00,57.2,43.9,30.02,WSW,248,1.1,4.3,61,0.00,,,0.00,WUHU216HW,2013-03-05 19:08:00,
2013-03-05 11:13:00,57.4,42.3,30.02,SW,225,6.3,6.3,57,0.00,,,0.00,WUHU216HW,2013-03-05 19:13:00,
2013-03-05 11:18:00,57.6,42.5,30.02,SSW,203,3.4,6.3,57,0.00,,,0.00,WUHU216HW,2013-03-05 19:18:00,
2013-03-05 11:23:00,57.8,43.1,30.02,SSW,203,6.3,6.3,58,0.00,,,0.00,WUHU216HW,2013-03-05 19:23:00,
2013-03-05 11:28:00,58.3,43.6,30.02,SE,135,3.4,6.3,58,0.00,,,0.00,WUHU216HW,2013-03-05 19:28:00,
2013-03-05 11:33:00,58.5,44.2,30.01,SE,135,4.7,4.7,59,0.00,,,0.00,WUHU216HW,2013-03-05 19:33:00,
2013-03-05 11:38:00,58.9,44.1,30.02,SSE,158,3.4,4.7,58,0.00,,,0.00,WUHU216HW,2013-03-05 19:38:00,
2013-03-05 11:43:00,59.2,44.5,30.01,SE,135,3.8,6.5,58,0.00,,,0.00,WUHU216HW,2013-03-05 19:43:00,
2013-03-05 11:48:00,59.4,44.7,30.01,SSE,158,3.6,6.5,58,0.00,,,0.00,WUHU216HW,2013-03-05 19:48:00,
2013-03-05 11:53:00,59.6,45.3,30.01,WSW,248,2.5,3.8,59,0.00,,,0.00,WUHU216HW,2013-03-05 19:53:00,
2013-03-05 11:58:00,59.8,44.9,30.00,NE,45,0.9,3.6,58,0.00,,,0.00,WUHU216HW,2013-03-05 19:58:00,
2013-03-05 12:03:00,59.9,45.1,30.00,WSW,248,2.9,2.9,58,0.00,,,0.00,WUHU216HW,2013-03-05 20:03:00,
2013-03-05 12:08:00,60.3,45.5,30.00,SE,135,4.0,4.0,58,0.00,,,0.00,WUHU216HW,2013-03-05 20:08:00,
2013-03-05 12:13:00,60.5,45.6,30.00,WSW,248,2.2,4.0,58,0.00,,,0.00,WUHU216HW,2013-03-05 20:13:00,
2013-03-05 12:18:00,60.7,45.8,29.99,SSW,203,4.3,4.3,58,0.00,,,0.00,WUHU216HW,2013-03-05 20:18:00,
2013-03-05 12:23:00,60.8,45.6,29.99,SW,225,4.7,4.7,57,0.00,,,0.00,WUHU216HW,2013-03-05 20:23:00,
2013-03-05 12:28:00,61.2,45.4,29.99,SW,225,1.8,4.7,56,0.00,,,0.00,WUHU216HW,2013-03-05 20:28:00,
2013-03-05 12:33:00,61.4,45.6,29.99,WSW,248,4.0,4.7,56,0.00,,,0.00,WUHU216HW,2013-03-05 20:33:00,
2013-03-05 12:38:00,61.6,44.7,29.98,SW,225,6.5,6.5,54,0.00,,,0.00,WUHU216HW,2013-03-05 20:38:00,
2013-03-05 12:43:00,61.6,44.2,29.98,SW,225,4.7,6.5,53,0.00,,,0.00,WUHU216HW,2013-03-05 20:43:00,
2013-03-05 12:48:00,61.6,44.7,29.98,SW,225,3.6,4.7,54,0.00,,,0.00,WUHU216HW,2013-03-05 20:48:00,
2013-03-05 12:53:00,61.7,44.9,29.98,SW,225,5.1,5.1,54,0.00,,,0.00,WUHU216HW,2013-03-05 20:53:00,
2013-03-05 12:58:00,61.7,44.4,29.98,SW,225,5.4,5.4,53,0.00,,,0.00,WUHU216HW,2013-03-05 20:58:00,
2013-03-05 13:03:00,61.9,45.0,29.98,SSW,203,3.4,5.4,54,0.00,,,0.00,WUHU216HW,2013-03-05 21:03:00,
2013-03-05 13:08:00,62.1,45.2,29.97,NW,315,2.7,5.4,54,0.00,,,0.00,WUHU216HW,2013-03-05 21:08:00,
2013-03-05 13:13:00,62.1,45.2,29.97,WNW,293,4.7,4.7,54,0.00,,,0.00,WUHU216HW,2013-03-05 21:13:00,
2013-03-05 13:18:00,61.9,45.0,29.97,West,270,6.5,6.5,54,0.00,,,0.00,WUHU216HW,2013-03-05 21:18:00,
2013-03-05 13:23:00,61.9,45.6,29.97,WSW,248,7.6,7.6,55,0.00,,,0.00,WUHU216HW,2013-03-05 21:23:00,
2013-03-05 13:28:00,61.7,45.4,29.97,West,270,6.3,7.6,55,0.00,,,0.00,WUHU216HW,2013-03-05 21:28:00,
2013-03-05 13:33:00,61.6,45.2,29.97,West,270,3.4,6.3,55,0.00,,,0.00,WUHU216HW,2013-03-05 21:33:00,
2013-03-05 13:38:00,61.4,45.0,29.97,WSW,248,3.6,4.9,55,0.00,,,0.00,WUHU216HW,2013-03-05 21:38:00,
2013-03-05 13:43:00,61.2,45.4,29.96,NW,315,3.4,5.4,56,0.00,,,0.00,WUHU216HW,2013-03-05 21:43:00,
2013-03-05 13:48:00,61.2,44.9,29.96,SW,225,4.5,5.4,55,0.00,,,0.00,WUHU216HW,2013-03-05 21:48:00,
2013-03-05 13:53:00,61.6,45.7,29.95,WSW,248,1.1,4.5,56,0.00,,,0.00,WUHU216HW,2013-03-05 21:53:00,
2013-03-05 13:58:00,61.7,45.8,29.96,SSE,158,1.3,4.0,56,0.00,,,0.00,WUHU216HW,2013-03-05 21:58:00,
2013-03-05 14:03:00,62.1,46.6,29.95,WNW,293,3.4,4.9,57,0.00,,,0.00,WUHU216HW,2013-03-05 22:03:00,
2013-03-05 14:08:00,62.1,46.2,29.95,West,270,6.0,6.0,56,0.00,,,0.00,WUHU216HW,2013-03-05 22:08:00,
2013-03-05 14:13:00,62.1,46.2,29.95,SW,225,6.5,6.5,56,0.00,,,0.00,WUHU216HW,2013-03-05 22:13:00,
2013-03-05 14:18:00,62.3,46.4,29.95,WSW,248,4.9,6.5,56,0.00,,,0.00,WUHU216HW,2013-03-05 22:18:00,
2013-03-05 14:23:00,62.3,45.8,29.95,WSW,248,3.1,4.9,55,0.00,,,0.00,WUHU216HW,2013-03-05 22:23:00,
2013-03-05 14:28:00,62.3,45.8,29.95,WSW,248,5.1,5.1,55,0.00,,,0.00,WUHU216HW,2013-03-05 22:28:00,
2013-03-05 14:33:00,62.3,45.8,29.95,SSE,158,3.8,5.1,55,0.00,,,0.00,WUHU216HW,2013-03-05 22:33:00,
2013-03-05 14:38:00,62.3,45.8,29.95,WSW,248,2.5,5.1,55,0.00,,,0.00,WUHU216HW,2013-03-05 22:38:00,
2013-03-05 14:43:00,62.5,45.6,29.95,SW,225,3.1,3.1,54,0.00,,,0.00,WUHU216HW,2013-03-05 22:43:00,
2013-03-05 14:48:00,62.5,45.6,29.95,SSE,158,3.6,4.0,54,0.00,,,0.00,WUHU216HW,2013-03-05 22:48:00,
2013-03-05 14:53:00,62.8,45.8,29.95,WSW,248,3.1,7.4,54,0.00,,,0.00,WUHU216HW,2013-03-05 22:53:00,
2013-03-05 14:58:00,63.2,46.2,29.95,SSW,203,2.9,7.4,54,0.00,,,0.00,WUHU216HW,2013-03-05 22:58:00,
2013-03-05 15:03:00,63.5,46.0,29.95,SSE,158,4.0,4.0,53,0.00,,,0.00,WUHU216HW,2013-03-05 23:03:00,
2013-03-05 15:08:00,63.9,45.8,29.95,SE,135,3.4,4.0,52,0.00,,,0.00,WUHU216HW,2013-03-05 23:08:00,
2013-03-05 15:13:00,63.9,45.8,29.95,SSE,158,2.5,4.0,52,0.00,,,0.00,WUHU216HW,2013-03-05 23:13:00,
2013-03-05 15:18:00,64.1,45.6,29.95,South,180,5.4,6.3,51,0.00,,,0.00,WUHU216HW,2013-03-05 23:18:00,
2013-03-05 15:23:00,64.1,45.6,29.95,WSW,248,3.8,6.3,51,0.00,,,0.00,WUHU216HW,2013-03-05 23:23:00,
2013-03-05 15:28:00,63.9,45.4,29.95,SW,225,2.2,6.9,51,0.00,,,0.00,WUHU216HW,2013-03-05 23:28:00,
2013-03-05 15:33:00,64.1,45.6,29.95,SE,135,1.8,6.9,51,0.00,,,0.00,WUHU216HW,2013-03-05 23:33:00,
2013-03-05 15:38:00,63.7,44.7,29.95,SE,135,3.1,4.7,50,0.00,,,0.00,WUHU216HW,2013-03-05 23:38:00,
2013-03-05 15:44:00,63.7,45.2,29.95,ESE,113,4.0,6.5,51,0.00,,,0.00,WUHU216HW,2013-03-05 23:44:00,
2013-03-05 15:49:00,63.7,45.2,29.94,ESE,113,2.2,6.5,51,0.00,,,0.00,WUHU216HW,2013-03-05 23:49:00,
2013-03-05 15:54:00,63.9,45.4,29.94,SW,225,6.0,6.0,51,0.00,,,0.00,WUHU216HW,2013-03-05 23:54:00,
2013-03-05 15:59:00,63.9,45.4,29.94,SE,135,1.8,6.0,51,0.00,,,0.00,WUHU216HW,2013-03-05 23:59:00,
2013-03-05 16:04:00,63.7,44.7,29.94,SSW,203,4.0,6.3,50,0.00,,,0.00,WUHU216HW,2013-03-06 00:04:00,
2013-03-05 16:09:00,63.7,45.2,29.94,South,180,1.8,6.3,51,0.00,,,0.00,WUHU216HW,2013-03-06 00:09:00,
2013-03-05 16:14:00,63.7,45.2,29.94,NE,45,4.0,4.0,51,0.00,,,0.00,WUHU216HW,2013-03-06 00:14:00,
2013-03-05 16:19:00,63.4,44.9,29.94,NNE,23,3.4,4.7,51,0.00,,,0.00,WUHU216HW,2013-03-06 00:19:00,
2013-03-05 16:24:00,63.4,44.9,29.93,SSE,158,4.9,4.9,51,0.00,,,0.00,WUHU216HW,2013-03-06 00:24:00,
2013-03-05 16:29:00,63.2,44.7,29.93,ESE,113,2.2,5.6,51,0.00,,,0.00,WUHU216HW,2013-03-06 00:29:00,
2013-03-05 16:34:00,63.0,44.6,29.93,SW,225,2.9,5.6,51,0.00,,,0.00,WUHU216HW,2013-03-06 00:34:00,
2013-03-05 16:39:00,63.0,44.1,29.93,SW,225,4.0,4.0,50,0.00,,,0.00,WUHU216HW,2013-03-06 00:39:00,
2013-03-05 16:44:00,62.6,43.7,29.92,ESE,113,3.6,4.0,50,0.00,,,0.00,WUHU216HW,2013-03-06 00:44:00,
2013-03-05 16:49:00,61.9,43.6,29.92,SE,135,3.4,4.0,51,0.00,,,0.00,WUHU216HW,2013-03-06 00:49:00,
2013-03-05 16:54:00,61.7,43.4,29.92,SSE,158,2.5,5.4,51,0.00,,,0.00,WUHU216HW,2013-03-06 00:54:00,
2013-03-05 16:59:00,61.6,43.3,29.92,SW,225,2.5,5.4,51,0.00,,,0.00,WUHU216HW,2013-03-06 00:59:00,
2013-03-05 17:04:00,61.4,43.6,29.91,NNW,338,2.0,2.5,52,0.00,,,0.00,WUHU216HW,2013-03-06 01:04:00,
2013-03-05 17:09:00,60.8,43.1,29.91,SSW,203,4.0,4.0,52,0.00,,,0.00,WUHU216HW,2013-03-06 01:09:00,
2013-03-05 17:14:00,60.7,42.5,29.91,SE,135,2.2,4.0,51,0.00,,,0.00,WUHU216HW,2013-03-06 01:14:00,
2013-03-05 17:19:00,60.3,42.6,29.91,SSE,158,3.4,4.0,52,0.00,,,0.00,WUHU216HW,2013-03-06 01:19:00,
2013-03-05 17:24:00,60.1,42.4,29.91,SSW,203,4.5,4.5,52,0.00,,,0.00,WUHU216HW,2013-03-06 01:24:00,
2013-03-05 17:29:00,59.4,42.2,29.91,WSW,248,0.9,8.9,53,0.00,,,0.00,WUHU216HW,2013-03-06 01:29:00,
2013-03-05 17:34:00,59.2,42.6,29.91,SSW,203,3.4,8.9,54,0.00,,,0.00,WUHU216HW,2013-03-06 01:34:00,
2013-03-05 17:39:00,59.2,42.6,29.91,SSW,203,2.2,3.6,54,0.00,,,0.00,WUHU216HW,2013-03-06 01:39:00,
2013-03-05 17:44:00,59.0,42.8,29.91,WSW,248,4.5,4.5,55,0.00,,,0.00,WUHU216HW,2013-03-06 01:44:00,
2013-03-05 17:49:00,58.9,42.7,29.91,SSW,203,2.5,4.5,55,0.00,,,0.00,WUHU216HW,2013-03-06 01:49:00,
2013-03-05 17:54:00,58.7,42.5,29.91,West,270,1.8,4.5,55,0.00,,,0.00,WUHU216HW,2013-03-06 01:54:00,
2013-03-05 17:59:00,58.7,43.0,29.91,SE,135,1.6,2.5,56,0.00,,,0.00,WUHU216HW,2013-03-06 01:59:00,
2013-03-05 18:04:00,58.3,43.1,29.91,SW,225,4.3,4.3,57,0.00,,,0.00,WUHU216HW,2013-03-06 02:04:00,
2013-03-05 18:09:00,58.3,43.1,29.90,SE,135,1.3,4.3,57,0.00,,,0.00,WUHU216HW,2013-03-06 02:09:00,
2013-03-05 18:14:00,58.1,42.9,29.90,ESE,113,1.1,2.0,57,0.00,,,0.00,WUHU216HW,2013-03-06 02:14:00,
2013-03-05 18:19:00,57.8,43.1,29.90,SE,135,1.3,2.2,58,0.00,,,0.00,WUHU216HW,2013-03-06 02:19:00,
2013-03-05 18:24:00,57.6,42.9,29.90,SW,225,4.5,4.5,58,0.00,,,0.00,WUHU216HW,2013-03-06 02:24:00,
2013-03-05 18:29:00,57.2,42.7,29.90,SSW,203,3.1,4.5,58,0.00,,,0.00,WUHU216HW,2013-03-06 02:29:00,
2013-03-05 18:34:00,57.1,42.5,29.90,SE,135,2.5,3.1,58,0.00,,,0.00,WUHU216HW,2013-03-06 02:34:00,
2013-03-05 18:39:00,56.9,42.3,29.90,SW,225,4.7,4.7,58,0.00,,,0.00,WUHU216HW,2013-03-06 02:39:00,
2013-03-05 18:44:00,56.7,42.6,29.90,SW,225,4.0,4.7,59,0.00,,,0.00,WUHU216HW,2013-03-06 02:44:00,
2013-03-05 18:49:00,56.5,42.4,29.90,SW,225,4.7,5.4,59,0.00,,,0.00,WUHU216HW,2013-03-06 02:49:00,
2013-03-05 18:54:00,56.3,42.2,29.91,WSW,248,2.2,5.4,59,0.00,,,0.00,WUHU216HW,2013-03-06 02:54:00,
2013-03-05 18:59:00,56.2,42.5,29.91,SW,225,4.0,4.7,60,0.00,,,0.00,WUHU216HW,2013-03-06 02:59:00,
2013-03-05 19:04:00,56.2,42.5,29.90,SW,225,5.8,6.3,60,0.00,,,0.00,WUHU216HW,2013-03-06 03:04:00,
2013-03-05 19:09:00,56.2,42.5,29.91,SSE,158,3.1,6.3,60,0.00,,,0.00,WUHU216HW,2013-03-06 03:09:00,
2013-03-05 19:14:00,56.2,42.9,29.90,ESE,113,3.8,5.8,61,0.00,,,0.00,WUHU216HW,2013-03-06 03:14:00,
2013-03-05 19:19:00,56.2,42.9,29.90,SSW,203,2.5,4.0,61,0.00,,,0.00,WUHU216HW,2013-03-06 03:19:00,
2013-03-05 19:24:00,56.2,42.9,29.90,SSW,203,3.8,4.7,61,0.00,,,0.00,WUHU216HW,2013-03-06 03:24:00,
2013-03-05 19:29:00,56.2,42.9,29.90,WSW,248,8.7,8.7,61,0.00,,,0.00,WUHU216HW,2013-03-06 03:29:00,
2013-03-05 19:34:00,55.8,42.6,29.90,WNW,293,6.0,8.7,61,0.00,,,0.00,WUHU216HW,2013-03-06 03:34:00,
2013-03-05 19:39:00,55.4,42.6,29.90,SSE,158,2.9,8.7,62,0.00,,,0.00,WUHU216HW,2013-03-06 03:39:00,
2013-03-05 19:44:00,55.3,42.4,29.89,East,90,7.6,7.8,62,0.00,,,0.00,WUHU216HW,2013-03-06 03:44:00,
2013-03-05 19:49:00,55.1,42.7,29.90,SSE,158,4.3,9.2,63,0.00,,,0.00,WUHU216HW,2013-03-06 03:49:00,
2013-03-05 19:54:00,54.9,42.5,29.90,South,180,4.7,9.2,63,0.00,,,0.00,WUHU216HW,2013-03-06 03:54:00,
2013-03-05 19:59:00,54.9,42.9,29.90,SSE,158,5.4,5.6,64,0.00,,,0.00,WUHU216HW,2013-03-06 03:59:00,
2013-03-05 20:04:00,54.9,42.9,29.90,SE,135,4.9,5.6,64,0.00,,,0.00,WUHU216HW,2013-03-06 04:04:00,
2013-03-05 20:09:00,54.9,42.9,29.89,SSE,158,3.4,5.6,64,0.00,,,0.00,WUHU216HW,2013-03-06 04:09:00,
2013-03-05 20:14:00,54.9,42.9,29.89,SW,225,1.8,8.7,64,0.00,,,0.00,WUHU216HW,2013-03-06 04:14:00,
2013-03-05 20:19:00,54.9,42.9,29.89,SE,135,4.5,8.7,64,0.00,,,0.00,WUHU216HW,2013-03-06 04:19:00,
2013-03-05 20:24:00,54.7,42.8,29.88,SSE,158,4.0,6.7,64,0.00,,,0.00,WUHU216HW,2013-03-06 04:24:00,
2013-03-05 20:29:00,54.5,42.6,29.88,South,180,1.8,4.5,64,0.00,,,0.00,WUHU216HW,2013-03-06 04:29:00,
2013-03-05 20:34:00,54.5,42.6,29.88,SSW,203,5.4,5.4,64,0.00,,,0.00,WUHU216HW,2013-03-06 04:34:00,
2013-03-05 20:39:00,54.5,42.6,29.88,NNW,338,3.4,7.2,64,0.00,,,0.00,WUHU216HW,2013-03-06 04:39:00,
2013-03-05 20:44:00,54.5,42.6,29.89,East,90,5.4,7.2,64,0.00,,,0.00,WUHU216HW,2013-03-06 04:44:00,
2013-03-05 20:49:00,54.4,42.9,29.89,SSW,203,1.6,5.4,65,0.00,,,0.00,WUHU216HW,2013-03-06 04:49:00,
2013-03-05 20:54:00,54.4,42.9,29.89,South,180,3.1,6.0,65,0.00,,,0.00,WUHU216HW,2013-03-06 04:54:00,
2013-03-05 20:59:00,54.4,42.9,29.89,SW,225,12.3,12.3,65,0.00,,,0.00,WUHU216HW,2013-03-06 04:59:00,
2013-03-05 21:04:00,54.4,42.9,29.88,South,180,3.1,12.3,65,0.00,,,0.00,WUHU216HW,2013-03-06 05:04:00,
2013-03-05 21:09:00,54.4,42.9,29.88,SW,225,2.5,3.8,65,0.00,,,0.00,WUHU216HW,2013-03-06 05:09:00,
2013-03-05 21:14:00,54.4,42.9,29.88,SE,135,5.1,5.1,65,0.00,,,0.00,WUHU216HW,2013-03-06 05:14:00,
2013-03-05 21:19:00,54.4,42.9,29.88,SSW,203,4.9,5.1,65,0.00,,,0.00,WUHU216HW,2013-03-06 05:19:00,
2013-03-05 21:24:00,54.4,42.4,29.89,SE,135,2.2,4.9,64,0.00,,,0.00,WUHU216HW,2013-03-06 05:24:00,
2013-03-05 21:29:00,54.4,42.4,29.89,West,270,6.3,8.1,64,0.00,,,0.00,WUHU216HW,2013-03-06 05:29:00,
2013-03-05 21:34:00,54.5,42.6,29.90,SSE,158,1.8,8.1,64,0.00,,,0.00,WUHU216HW,2013-03-06 05:34:00,
2013-03-05 21:39:00,54.5,42.6,29.90,West,270,4.7,7.2,64,0.00,,,0.00,WUHU216HW,2013-03-06 05:39:00,
2013-03-05 21:44:00,54.5,42.6,29.89,West,270,4.3,4.7,64,0.00,,,0.00,WUHU216HW,2013-03-06 05:44:00,
2013-03-05 21:49:00,54.7,42.8,29.89,SSE,158,2.2,5.8,64,0.00,,,0.00,WUHU216HW,2013-03-06 05:49:00,
2013-03-05 21:54:00,54.5,43.0,29.89,NW,315,2.2,5.8,65,0.00,,,0.00,WUHU216HW,2013-03-06 05:54:00,
2013-03-05 21:59:00,54.5,43.0,29.89,ESE,113,3.4,7.6,65,0.00,,,0.00,WUHU216HW,2013-03-06 05:59:00,
2013-03-05 22:04:00,54.5,43.0,29.89,SSW,203,0.4,7.6,65,0.00,,,0.00,WUHU216HW,2013-03-06 06:04:00,
2013-03-05 22:09:00,54.5,43.4,29.89,ENE,68,1.3,3.4,66,0.00,,,0.00,WUHU216HW,2013-03-06 06:09:00,
2013-03-05 22:14:00,54.4,43.2,29.89,ESE,113,1.8,4.7,66,0.00,,,0.00,WUHU216HW,2013-03-06 06:14:00,
2013-03-05 22:19:00,54.4,43.7,29.88,West,270,3.4,4.7,67,0.00,,,0.00,WUHU216HW,2013-03-06 06:19:00,
2013-03-05 22:24:00,54.2,43.8,29.89,ESE,113,5.6,5.6,68,0.00,,,0.00,WUHU216HW,2013-03-06 06:24:00,
2013-03-05 22:29:00,54.0,43.7,29.88,West,270,1.3,5.6,68,0.00,,,0.00,WUHU216HW,2013-03-06 06:29:00,
2013-03-05 22:34:00,54.0,43.7,29.88,SE,135,4.0,5.6,68,0.00,,,0.00,WUHU216HW,2013-03-06 06:34:00,
2013-03-05 22:39:00,53.8,43.5,29.88,East,90,2.5,4.0,68,0.01,,,0.01,WUHU216HW,2013-03-06 06:39:00,
2013-03-05 22:44:00,53.8,43.5,29.88,SW,225,4.3,8.9,68,0.01,,,0.01,WUHU216HW,2013-03-06 06:44:00,
2013-03-05 22:49:00,53.6,43.3,29.88,SE,135,4.5,8.9,68,0.01,,,0.01,WUHU216HW,2013-03-06 06:49:00,
2013-03-05 22:54:00,53.6,43.3,29.88,East,90,3.4,4.9,68,0.01,,,0.01,WUHU216HW,2013-03-06 06:54:00,
2013-03-05 22:59:00,53.6,43.3,29.88,SE,135,2.5,4.5,68,0.01,,,0.01,WUHU216HW,2013-03-06 06:59:00,
2013-03-05 23:04:00,53.6,43.3,29.89,ENE,68,3.1,3.4,68,0.01,,,0.01,WUHU216HW,2013-03-06 07:04:00,
2013-03-05 23:09:00,53.6,43.3,29.88,WSW,248,3.1,5.1,68,0.01,,,0.01,WUHU216HW,2013-03-06 07:09:00,
2013-03-05 23:14:00,53.6,43.3,29.88,SSE,158,2.7,5.1,68,0.01,,,0.01,WUHU216HW,2013-03-06 07:14:00,
2013-03-05 23:19:00,53.5,43.1,29.88,West,270,2.7,3.1,68,0.01,,,0.01,WUHU216HW,2013-03-06 07:19:00,
2013-03-05 23:24:00,53.5,43.6,29.88,SSW,203,1.8,3.8,69,0.01,,,0.01,WUHU216HW,2013-03-06 07:24:00,
2013-03-05 23:29:00,53.5,43.6,29.88,SE,135,2.7,3.8,69,0.01,,,0.01,WUHU216HW,2013-03-06 07:29:00,
2013-03-05 23:34:00,53.5,43.6,29.88,ESE,113,8.1,8.1,69,0.01,,,0.01,WUHU216HW,2013-03-06 07:34:00,
2013-03-05 23:39:00,53.3,43.4,29.88,South,180,4.0,8.1,69,0.00,,,0.01,WUHU216HW,2013-03-06 07:39:00,
2013-03-05 23:44:00,53.3,43.4,29.88,SE,135,2.0,8.1,69,0.00,,,0.01,WUHU216HW,2013-03-06 07:44:00,
2013-03-05 23:49:00,53.3,43.4,29.87,SE,135,3.4,7.8,69,0.00,,,0.01,WUHU216HW,2013-03-06 07:49:00,
2013-03-05 23:54:00,53.3,43.0,29.87,East,90,4.0,7.8,68,0.00,,,0.01,WUHU216HW,2013-03-06 07:54:00,
2013-03-05 23:59:00,53.1,43.2,29.87,SSW,203,6.7,6.7,69,0.00,,,0.01,WUHU216HW,2013-03-06 07:59:00,